Weather in Irbeyskoe

Russia / Krasnoyarsk Krai     55°38′36″N   95°27′34″E
temp.,
°C
wind,
m/s
gust,
m/s
humid.,
%
clouds,
%
prec.,
mm/h
press.,
hPa
HPBL,
m
8 may, sat
sat801:00+8wnw399496 1.0 1009200
04:00+7w49920 0.3 1011199
07:00+9w4107861 0.3 1013479
10:00+12w7115999 0.1 10121600
13:00+8wnw5108170 1.8 1012771
16:00+11nw6956100 0.2 10121429
19:00+9wnw2668100 0.3 1012667
22:00+7sw4886100 1.1 1012927
9 may, sun
sun901:00+6w6118496 1.8 1011675
04:00+4wnw5989100 0.1 1012434
07:00+5wnw698268 0.2 1013825
10:00+5wnw6886100 0.3 1013910
13:00+7wnw5766100 0.8 10141414
16:00+7nw6663100 0.3 10151139
19:00+6wnw5673100 0.3 1016836
22:00+4wnw5892100 0.7 1017638
10 may, mon
mon1001:00+4nw4793100 3.6 1018720
04:00+4wnw3694100 0.3 1018251
07:00+4nw4792100 0.4 1020641
10:00+4wnw4795100 0.1 1021453
13:00+11n455186 0.6 10201710
16:00+12n5550100 1.1 10201559
19:00+9ne3668100 1.8 1021285
22:00+6e228123 0.3 102214
11 may, tue
tue1101:00+4se11915 0.3 102112
04:00+2ese22935 0.0 102116
07:00+6e24805 0.0 1020196
10:00+10e565927 0.0 10181392
13:00+13e564410 0.0 10161909
16:00+15e553847 0.0 10142216
19:00+11ene711557 0.0 1014678
22:00+7ene4106977 0.0 1015252
12 may, wed
wed1201:00+7ne496998 0.0 1014249
04:00+4ne4108126 0.0 1014211
07:00+6ne597566 0.0 1014338
10:00+10ne675894 0.0 1014924
13:00+13nne6647100 0.0 10141964
16:00+11nne774895 0.0 10141623
19:00+10ne584669 0.0 1016652
22:00+6nne335510 0.0 101836